Regional Weather Roundup
Issued by NWS

Home | Current Version | Previous Version | Text Only | Print | Product List | Glossary On
Versions: 1 2 3 4 5 6 7 8 9 10 11 12 13 14 15 16 17 18 19 20 21 22 23 24 25 26 27 28 29 30 31 32 33 34 35 36 37 38 39 40 41 42 43 44 45 46 47 48 49 50
000
ASCA44 KEWX 200520
RWRMX

LATIN AMERICA AND CARIBBEAN REGIONAL WEATHER ROUNDUP
NATIONAL WEATHER SERVICE AUSTIN/SAN ANTONIO TX
1100 PM CST SUN FEB 19 2017

NOTE: "FAIR" INDICATED FEW OR NO CLOUDS BELOW 12,000 FEET WITH NO
SIGNIFICANT WEATHER AND/OR OBSTRUCTIONS TO VISIBILITY.

BAJA CALIFORNIA

CITY           SKY/WX    TMP DP  RH WIND       PRES   REMARKS
LA PAZ         PTCLDY    59  52  77 S6        30.09R
MEXICALI       CLEAR     61  48  63 CALM      30.07R
S.J. DEL CABO  CLEAR     61  54  77 W6        30.08R
TIJUANA        MOCLDY    54  45  71 CALM      30.17R

NORTHWESTERN MEXICO

CITY           SKY/WX    TMP DP  RH WIND       PRES   REMARKS
CULIACAN       CLEAR     61  55  82 CALM      30.05S
HERMOSILLO     PTCLDY    59  54  82 CALM      30.12R
LOS MOCHIS     CLEAR     59  54  82 CALM      30.07S

NORTHEASTERN MEXICO

CITY           SKY/WX    TMP DP  RH WIND       PRES   REMARKS
MONCLOVA         N/A    N/A N/A N/A MISG        N/A
MONTERREY      MOCLDY    73  54  49 NW14      29.82R
REYNOSA          N/A    N/A N/A N/A MISG        N/A
CD. VICTORIA     N/A    N/A N/A N/A MISG        N/A

WESTERN MEXICO

CITY           SKY/WX    TMP DP  RH WIND       PRES   REMARKS
AGUASCALIENTES CLOUDY    57  34  41 S6        30.23R
COLIMA           N/A    N/A N/A N/A MISG        N/A
DEL BAJIO      CLOUDY    57  41  54 SE6       30.26S
GUADALAJARA    MOCLDY    59  45  58 NE5       30.19R
MAZATLAN       PTCLDY    63  55  77 NW3       30.04R
P. VALLARTA    MOCLDY    70  70 100 CALM      30.02R
URUAPAN        MOCLDY    55  52  88 CALM      30.20S
ZACATECAS      CLEAR     52  34  50 SW17      30.21S

CENTRAL MEXICO

CITY           SKY/WX    TMP DP  RH WIND       PRES   REMARKS
CUERNAVACA       N/A    N/A N/A N/A MISG        N/A
MEXICO CITY    MOCLDY    61  36  39 S6G21     30.31R
MORELIA        MOCLDY    52  46  82 CALM      30.24S
POZA RICA        N/A    N/A N/A N/A MISG        N/A
QUERETARO      MOCLDY    54  43  66 N6        30.28F
S. LUIS POTOSI MOCLDY    63  30  29 CALM      30.16S
TAMPICO        PTCLDY    73  72  94 S12       29.82R
TOLUCA         MOCLDY    46  34  61 CALM      30.40R

SOUTHERN MEXICO

CITY           SKY/WX    TMP DP  RH WIND       PRES   REMARKS
ACAPULCO       PTCLDY    79  72  78 W8        29.98S
B. DE HUATULCO   N/A    N/A N/A N/A MISG        N/A
P. ESCONDIDO     N/A    N/A N/A N/A MISG        N/A
VERACRUZ       PTCLDY    73  72  94 NW5       29.87R

YUCATAN PENINSULA

CITY           SKY/WX    TMP DP  RH WIND       PRES   REMARKS
CAMPECHE         N/A    N/A N/A N/A MISG        N/A
CANCUN         PTCLDY    79  73  83 SE13      30.00F
CHETUMAL         N/A    N/A N/A N/A MISG        N/A
CD. DEL CARMEN   N/A    N/A N/A N/A MISG        N/A
COZUMEL        PTCLDY    79  73  83 SE12      29.98S
MERIDA         PTCLDY    81  64  57 SE16      29.93R
MINATITLAN       N/A    N/A N/A N/A MISG        N/A
TAPACHULA      PTCLDY    79  70  73 CALM      29.97R
TUX. GUTIERREZ CLEAR     72  59  64 SW5       30.00R
VILLAHERMOSA   CLEAR     73  73 100 CALM      29.88S

CENTRAL AMERICA

CITY           SKY/WX    TMP DP  RH WIND       PRES   REMARKS
MANAGUA        PTCLDY    79  70  73 SE9       29.92S

CARIBBEAN

CITY           SKY/WX    TMP DP  RH WIND       PRES   REMARKS
ARUBA          PTCLDY    79  70  73 E13       29.94S
CURACAO        PTCLDY    75  68  78 SE8       29.97S
KINGSTON       PTCLDY    77  70  78 N3        29.97
NASSAU         LGT RAIN  79  64  61 N9        30.09
SAN JUAN       MOCLDY    75  73  94 CALM      30.02F
SANTO DOMINGO  PTCLDY    72  68  88 NE5       30.00S
ST. CROIX      CLEAR     72  66  83 N6        30.03
ST. MAARTEN    PTCLDY    77  70  78 VRB3      30.00F
ST. THOMAS     CLEAR     73  70  88 E3        30.01

$$




USA.gov is the U.S. government's official web portal to all federal, state and local government web resources and services.